Time,TemperatureF,DewpointF,PressureIn,WindDirection,WindDirectionDegrees,WindSpeedMPH,WindSpeedGustMPH,Humidity,HourlyPrecipIn,Conditions,Clouds,dailyrainin,SoftwareType,DateUTC
2013-02-06 00:09:00,35.3,17.0,30.00,SE,141,0.0,5.0,47,0.00,,,0.00,weatherlink.com 1.10,2013-02-06 07:09:00,
2013-02-06 00:22:00,33.5,16.0,30.00,SSE,154,0.0,2.0,49,0.00,,,0.00,weatherlink.com 1.10,2013-02-06 07:22:00,
2013-02-06 00:37:00,31.7,17.0,30.00,SE,136,0.0,2.0,54,0.00,,,0.00,weatherlink.com 1.10,2013-02-06 07:37:00,
2013-02-06 00:53:00,30.5,16.0,30.00,SE,136,2.0,4.0,55,0.00,,,0.00,weatherlink.com 1.10,2013-02-06 07:53:00,
2013-02-06 01:07:00,31.7,16.0,30.00,SE,143,0.0,1.0,53,0.00,,,0.00,weatherlink.com 1.10,2013-02-06 08:07:00,
2013-02-06 01:23:00,33.5,17.0,30.00,SSE,149,0.0,1.0,52,0.00,,,0.00,weatherlink.com 1.10,2013-02-06 08:23:00,
2013-02-06 01:37:00,32.7,17.0,29.99,South,177,0.0,1.0,52,0.00,,,0.00,weatherlink.com 1.10,2013-02-06 08:37:00,
2013-02-06 01:52:00,31.8,17.0,29.99,South,191,1.0,2.0,55,0.00,,,0.00,weatherlink.com 1.10,2013-02-06 08:52:00,
2013-02-06 02:08:00,30.9,17.0,29.98,SW,217,1.0,3.0,57,0.00,,,0.00,weatherlink.com 1.10,2013-02-06 09:08:00,
2013-02-06 02:22:00,30.5,17.0,29.98,SW,219,4.0,4.0,58,0.00,,,0.00,weatherlink.com 1.10,2013-02-06 09:22:00,
2013-02-06 02:37:00,30.2,17.0,29.97,South,187,1.0,4.0,59,0.00,,,0.00,weatherlink.com 1.10,2013-02-06 09:37:00,
2013-02-06 02:53:00,30.5,18.0,29.97,West,274,2.0,3.0,60,0.00,,,0.00,weatherlink.com 1.10,2013-02-06 09:53:00,
2013-02-06 03:08:00,31.9,18.0,29.97,SSE,167,0.0,5.0,58,0.00,,,0.00,weatherlink.com 1.10,2013-02-06 10:08:00,
2013-02-06 03:22:00,32.1,19.0,29.97,SSE,159,0.0,1.0,58,0.00,,,0.00,weatherlink.com 1.10,2013-02-06 10:22:00,
2013-02-06 03:37:00,29.7,16.0,29.97,SSW,210,1.0,3.0,58,0.00,,,0.00,weatherlink.com 1.10,2013-02-06 10:37:00,
2013-02-06 03:53:00,28.4,16.0,29.98,South,174,0.0,3.0,59,0.00,,,0.00,weatherlink.com 1.10,2013-02-06 10:53:00,
2013-02-06 04:08:00,27.9,16.0,29.97,South,173,0.0,1.0,61,0.00,,,0.00,weatherlink.com 1.10,2013-02-06 11:08:00,
2013-02-06 04:23:00,27.3,16.0,29.97,West,274,1.0,3.0,63,0.00,,,0.00,weatherlink.com 1.10,2013-02-06 11:23:00,
2013-02-06 04:38:00,26.9,15.0,29.97,SW,219,1.0,2.0,62,0.00,,,0.00,weatherlink.com 1.10,2013-02-06 11:38:00,
2013-02-06 04:53:00,27.0,15.0,29.96,SW,235,4.0,4.0,60,0.00,,,0.00,weatherlink.com 1.10,2013-02-06 11:53:00,
2013-02-06 05:08:00,27.4,15.0,29.96,SW,224,2.0,5.0,60,0.00,,,0.00,weatherlink.com 1.10,2013-02-06 12:08:00,
2013-02-06 05:23:00,27.5,15.0,29.96,SSW,208,2.0,4.0,59,0.00,,,0.00,weatherlink.com 1.10,2013-02-06 12:23:00,
2013-02-06 05:38:00,26.3,15.0,29.96,SSE,155,1.0,1.0,63,0.00,,,0.00,weatherlink.com 1.10,2013-02-06 12:38:00,
2013-02-06 05:53:00,25.6,16.0,29.96,SSW,194,1.0,1.0,66,0.00,,,0.00,weatherlink.com 1.10,2013-02-06 12:53:00,
2013-02-06 06:08:00,26.2,15.0,29.97,SSE,160,0.0,2.0,63,0.00,,,0.00,weatherlink.com 1.10,2013-02-06 13:08:00,
2013-02-06 06:23:00,25.3,15.0,29.98,SSE,160,0.0,0.0,64,0.00,,,0.00,weatherlink.com 1.10,2013-02-06 13:23:00,
2013-02-06 06:38:00,24.7,15.0,29.98,SSE,162,0.0,1.0,66,0.00,,,0.00,weatherlink.com 1.10,2013-02-06 13:38:00,
2013-02-06 06:53:00,25.0,15.0,29.99,SW,226,1.0,2.0,67,0.00,,,0.00,weatherlink.com 1.10,2013-02-06 13:53:00,
2013-02-06 07:08:00,25.1,16.0,29.99,South,186,0.0,2.0,68,0.00,,,0.00,weatherlink.com 1.10,2013-02-06 14:08:00,
2013-02-06 07:23:00,25.0,16.0,30.00,South,187,0.0,1.0,68,0.00,,,0.00,weatherlink.com 1.10,2013-02-06 14:23:00,
2013-02-06 07:38:00,25.0,17.0,30.00,SSE,166,0.0,1.0,70,0.00,,,0.00,weatherlink.com 1.10,2013-02-06 14:38:00,
2013-02-06 07:53:00,28.5,18.0,30.00,SSE,163,0.0,1.0,65,0.00,,,0.00,weatherlink.com 1.10,2013-02-06 14:53:00,
2013-02-06 08:08:00,31.2,19.0,30.00,SSE,163,0.0,1.0,60,0.00,,,0.00,weatherlink.com 1.10,2013-02-06 15:08:00,
2013-02-06 08:23:00,32.4,19.0,30.01,SSE,162,0.0,1.0,57,0.00,,,0.00,weatherlink.com 1.10,2013-02-06 15:23:00,
2013-02-06 08:38:00,34.3,20.0,30.01,ESE,115,0.0,1.0,55,0.00,,,0.00,weatherlink.com 1.10,2013-02-06 15:38:00,
2013-02-06 08:53:00,35.8,20.0,30.01,ESE,103,0.0,2.0,52,0.00,,,0.00,weatherlink.com 1.10,2013-02-06 15:53:00,
2013-02-06 09:09:00,37.5,20.0,30.01,ESE,105,1.0,2.0,49,0.00,,,0.00,weatherlink.com 1.10,2013-02-06 16:09:00,
2013-02-06 09:23:00,39.2,20.0,30.01,ESE,108,0.0,1.0,46,0.00,,,0.00,weatherlink.com 1.10,2013-02-06 16:23:00,
2013-02-06 09:39:00,40.9,20.0,30.00,ESE,111,0.0,2.0,44,0.00,,,0.00,weatherlink.com 1.10,2013-02-06 16:39:00,
2013-02-06 09:54:00,42.6,21.0,30.00,ENE,76,1.0,3.0,42,0.00,,,0.00,weatherlink.com 1.10,2013-02-06 16:54:00,
2013-02-06 10:08:00,44.7,20.0,30.00,ESE,123,1.0,4.0,38,0.00,,,0.00,weatherlink.com 1.10,2013-02-06 17:08:00,
2013-02-06 10:24:00,46.3,21.0,30.00,NNE,13,3.0,3.0,36,0.00,,,0.00,weatherlink.com 1.10,2013-02-06 17:24:00,
2013-02-06 10:39:00,47.4,20.0,29.99,East,89,1.0,6.0,34,0.00,,,0.00,weatherlink.com 1.10,2013-02-06 17:39:00,
2013-02-06 10:54:00,48.8,20.0,29.98,ESE,116,2.0,6.0,32,0.00,,,0.00,weatherlink.com 1.10,2013-02-06 17:54:00,
2013-02-06 11:24:00,52.6,20.0,29.97,ENE,70,2.0,6.0,28,0.00,,,0.00,weatherlink.com 1.10,2013-02-06 18:24:00,
2013-02-06 11:39:00,53.6,20.0,29.96,SE,132,4.0,7.0,27,0.00,,,0.00,weatherlink.com 1.10,2013-02-06 18:39:00,
2013-02-06 11:54:00,53.9,20.0,29.95,SE,136,4.0,11.0,26,0.00,,,0.00,weatherlink.com 1.10,2013-02-06 18:54:00,
2013-02-06 12:09:00,55.1,20.0,29.94,ESE,123,4.0,8.0,25,0.00,,,0.00,weatherlink.com 1.10,2013-02-06 19:09:00,
2013-02-06 12:24:00,56.0,21.0,29.92,ESE,107,2.0,9.0,26,0.00,,,0.00,weatherlink.com 1.10,2013-02-06 19:24:00,
2013-02-06 12:39:00,56.9,21.0,29.91,East,80,2.0,9.0,25,0.00,,,0.00,weatherlink.com 1.10,2013-02-06 19:39:00,
2013-02-06 12:54:00,58.2,22.0,29.90,East,100,3.0,6.0,25,0.00,,,0.00,weatherlink.com 1.10,2013-02-06 19:54:00,
2013-02-06 13:09:00,58.3,23.0,29.89,NNE,25,4.0,7.0,26,0.00,,,0.00,weatherlink.com 1.10,2013-02-06 20:09:00,
2013-02-06 13:24:00,58.9,24.0,29.88,ENE,65,4.0,10.0,26,0.00,,,0.00,weatherlink.com 1.10,2013-02-06 20:24:00,
2013-02-06 13:39:00,59.3,24.0,29.87,South,172,5.0,12.0,26,0.00,,,0.00,weatherlink.com 1.10,2013-02-06 20:39:00,
2013-02-06 13:54:00,60.3,25.0,29.86,NE,56,4.0,8.0,26,0.00,,,0.00,weatherlink.com 1.10,2013-02-06 20:54:00,
2013-02-06 14:09:00,61.3,25.0,29.85,ENE,60,6.0,10.0,25,0.00,,,0.00,weatherlink.com 1.10,2013-02-06 21:09:00,
2013-02-06 14:24:00,60.5,26.0,29.84,SE,126,3.0,9.0,27,0.00,,,0.00,weatherlink.com 1.10,2013-02-06 21:24:00,
2013-02-06 14:39:00,61.3,27.0,29.84,SSE,159,9.0,17.0,27,0.00,,,0.00,weatherlink.com 1.10,2013-02-06 21:39:00,
2013-02-06 14:55:00,61.0,26.0,29.84,SE,145,9.0,13.0,26,0.00,,,0.00,weatherlink.com 1.10,2013-02-06 21:55:00,
2013-02-06 15:10:00,59.6,25.0,29.84,SE,139,8.0,10.0,27,0.00,,,0.00,weatherlink.com 1.10,2013-02-06 22:10:00,
2013-02-06 15:24:00,60.2,26.0,29.84,East,97,6.0,13.0,27,0.00,,,0.00,weatherlink.com 1.10,2013-02-06 22:24:00,
2013-02-06 15:39:00,60.5,26.0,29.83,SE,127,5.0,9.0,27,0.00,,,0.00,weatherlink.com 1.10,2013-02-06 22:39:00,
2013-02-06 15:55:00,59.5,25.0,29.83,SE,130,6.0,8.0,27,0.00,,,0.00,weatherlink.com 1.10,2013-02-06 22:55:00,
2013-02-06 16:09:00,58.8,26.0,29.84,ESE,118,3.0,8.0,28,0.00,,,0.00,weatherlink.com 1.10,2013-02-06 23:09:00,
2013-02-06 16:25:00,58.8,26.0,29.84,ESE,122,2.0,8.0,29,0.00,,,0.00,weatherlink.com 1.10,2013-02-06 23:25:00,
2013-02-06 16:40:00,58.9,27.0,29.84,ESE,111,4.0,7.0,30,0.00,,,0.00,weatherlink.com 1.10,2013-02-06 23:40:00,
2013-02-06 16:55:00,58.6,26.0,29.85,SE,139,7.0,8.0,29,0.00,,,0.00,weatherlink.com 1.10,2013-02-06 23:55:00,
2013-02-06 17:10:00,57.8,23.0,29.86,SE,131,6.0,10.0,26,0.00,,,0.00,weatherlink.com 1.10,2013-02-07 00:10:00,
2013-02-06 17:25:00,56.9,22.0,29.86,ESE,106,9.0,11.0,26,0.00,,,0.00,weatherlink.com 1.10,2013-02-07 00:25:00,
2013-02-06 17:40:00,55.8,22.0,29.87,SE,127,2.0,5.0,27,0.00,,,0.00,weatherlink.com 1.10,2013-02-07 00:40:00,
2013-02-06 17:55:00,54.8,21.0,29.88,SE,139,7.0,8.0,27,0.00,,,0.00,weatherlink.com 1.10,2013-02-07 00:55:00,
2013-02-06 18:10:00,54.1,21.0,29.89,SE,124,5.0,10.0,28,0.00,,,0.00,weatherlink.com 1.10,2013-02-07 01:10:00,
2013-02-06 18:25:00,53.2,22.0,29.89,SE,127,4.0,7.0,29,0.00,,,0.00,weatherlink.com 1.10,2013-02-07 01:25:00,
2013-02-06 18:40:00,52.5,22.0,29.90,SE,128,5.0,8.0,30,0.00,,,0.00,weatherlink.com 1.10,2013-02-07 01:40:00,
2013-02-06 18:55:00,51.9,21.0,29.90,SE,131,3.0,9.0,30,0.00,,,0.00,weatherlink.com 1.10,2013-02-07 01:55:00,
2013-02-06 19:10:00,51.4,21.0,29.90,ESE,122,7.0,8.0,30,0.00,,,0.00,weatherlink.com 1.10,2013-02-07 02:10:00,
2013-02-06 19:25:00,50.5,21.0,29.91,SE,124,3.0,7.0,32,0.00,,,0.00,weatherlink.com 1.10,2013-02-07 02:25:00,
2013-02-06 19:40:00,49.9,22.0,29.91,SE,133,7.0,9.0,33,0.00,,,0.00,weatherlink.com 1.10,2013-02-07 02:40:00,
2013-02-06 19:56:00,50.0,22.0,29.92,SE,137,6.0,11.0,33,0.00,,,0.00,weatherlink.com 1.10,2013-02-07 02:56:00,
2013-02-06 20:10:00,49.9,22.0,29.92,ESE,118,9.0,10.0,33,0.00,,,0.00,weatherlink.com 1.10,2013-02-07 03:10:00,
2013-02-06 20:25:00,49.3,22.0,29.93,SE,144,7.0,10.0,34,0.00,,,0.00,weatherlink.com 1.10,2013-02-07 03:25:00,
2013-02-06 20:40:00,48.4,22.0,29.94,SE,136,5.0,10.0,35,0.00,,,0.00,weatherlink.com 1.10,2013-02-07 03:40:00,
2013-02-06 20:55:00,47.6,22.0,29.95,ESE,122,7.0,10.0,36,0.00,,,0.00,weatherlink.com 1.10,2013-02-07 03:55:00,
2013-02-06 21:10:00,47.3,22.0,29.95,SE,127,2.0,7.0,37,0.00,,,0.00,weatherlink.com 1.10,2013-02-07 04:10:00,
2013-02-06 21:25:00,46.5,22.0,29.96,SSE,166,0.0,1.0,38,0.00,,,0.00,weatherlink.com 1.10,2013-02-07 04:25:00,
2013-02-06 21:40:00,45.7,22.0,29.96,ESE,118,1.0,2.0,40,0.00,,,0.00,weatherlink.com 1.10,2013-02-07 04:40:00,
2013-02-06 21:55:00,44.6,22.0,29.96,ESE,117,1.0,4.0,41,0.00,,,0.00,weatherlink.com 1.10,2013-02-07 04:55:00,
2013-02-06 22:10:00,44.3,22.0,29.97,SE,126,0.0,2.0,42,0.00,,,0.00,weatherlink.com 1.10,2013-02-07 05:10:00,
2013-02-06 22:25:00,41.2,22.0,29.97,SE,125,0.0,2.0,46,0.00,,,0.00,weatherlink.com 1.10,2013-02-07 05:25:00,
2013-02-06 22:40:00,41.2,22.0,29.98,SE,125,1.0,1.0,46,0.00,,,0.00,weatherlink.com 1.10,2013-02-07 05:40:00,
2013-02-06 22:55:00,41.0,22.0,29.98,SE,127,0.0,1.0,47,0.00,,,0.00,weatherlink.com 1.10,2013-02-07 05:55:00,
2013-02-06 23:10:00,40.9,21.0,29.99,SSE,155,0.0,1.0,46,0.00,,,0.00,weatherlink.com 1.10,2013-02-07 06:10:00,
2013-02-06 23:25:00,39.5,22.0,29.99,South,172,0.0,2.0,50,0.00,,,0.00,weatherlink.com 1.10,2013-02-07 06:25:00,
2013-02-06 23:40:00,38.7,22.0,29.99,SSE,150,0.0,0.0,51,0.00,,,0.00,weatherlink.com 1.10,2013-02-07 06:40:00,
2013-02-06 23:55:00,39.1,23.0,30.00,SSE,148,0.0,1.0,52,0.00,,,0.00,weatherlink.com 1.10,2013-02-07 06:55:00,